Regional Weather Roundup
Issued by NWS Newport/Morehead, NC

Current Version | Previous Version | Graphics & Text | Print | Product List | Glossary Off
Versions: 1 2 3 4 5 6 7 8 9 10 11 12 13 14 15 16 17 18 19 20 21 22 23 24 25 26 27 28 29 30 31 32 33 34 35 36 37 38 39 40 41 42 43 44 45 46 47 48 49 50

000
ASUS42 KMHX 241225
RWRMHX
WEATHER ROUNDUP FOR EASTERN NORTH CAROLINA
NATIONAL WEATHER SERVICE NEWPORT/MOREHEAD CITY NC
800 AM EDT WED AUG 24 2016

NOTE: "FAIR" INDICATES FEW OR NO CLOUDS BELOW 12,000 FEET
WITH NO SIGNIFICANT WEATHER AND/OR OBSTRUCTIONS TO VISIBILITY

NCZ015>017-031-032-045>047-102-103-241300-
NORTH COAST

CITY           SKY/WX    TMP DP  RH WIND       PRES   REMARKS
EDENTON        SUNNY     69  63  81 N5        30.30S
ELIZABETH CITY MOSUNNY   72  65  78 N9        30.29S
KITTY HAWK     SUNNY     77  70  78 NE6       30.26S
MANTEO         SUNNY     76  67  73 NE9       30.27S

$$

NCZ045>047-081-094-103-104-241300-
CENTRAL COAST

CITY           SKY/WX    TMP DP  RH WIND       PRES   REMARKS
FRISCO         MOSUNNY   78  69  73 NE9G17    30.25R

$$

NCZ095-097-098-100-101-241300-
SOUTHERN COAST

CITY           SKY/WX    TMP DP  RH WIND       PRES   REMARKS
BEAUFORT       SUNNY     73  66  78 N7        30.26R
CEDAR ISLAND   NOT AVBL
JACKSONVILLE   MOSUNNY   70  62  76 N7        30.27R
PINEY ISLAND   NOT AVBL
WILMINGTON     SUNNY     70  63  78 NE6       30.27R


$$

NCZ011>013-027>030-043-044-078>080-089-090>093-098-241300-
COASTAL PLAIN

CITY           SKY/WX    TMP DP  RH WIND       PRES   REMARKS
AHOSKIE        SUNNY     63  61  94 CALM      30.32R
CLINTON        SUNNY     70  64  83 CALM      30.30S
ELIZABETHTOWN  SUNNY     68  65  92 CALM      30.29R
GOLDSBORO      SUNNY     68  66  94 N3        30.29R
GREENVILLE     SUNNY     66  64  94 CALM      30.31R
HAVELOCK       MOSUNNY   74  63  68 N8        30.28R
KENANSVILLE    NOT AVBL
KINSTON        SUNNY     66  64  94 N3        30.30S
NEW BERN       SUNNY     70  65  84 NW5       30.30R
RICHLANDS      SUNNY     68  63  84 N3        30.29R
ROCKY MOUNT    MOSUNNY   66  66 100 CALM      30.32R
WASHINGTON     SUNNY     65  62  90 CALM      30.30R
WHITEVILLE     SUNNY     70  64  81 CALM      30.27S

$$

AMZ130-135-150-152-154-156-158-170-250-252-270-ANZ085-086-088-633-658-670-241300-
MARINE OBSERVATIONS

STATION/POSITION TIME  TEMP    WIND        PRES    WAVE   SWELL
                       AIR SEA DIR/SP/G            HT/PER HT/PER
                 (UTC) (F)     (DEG/KT/KT) (MB)    (FT/S) (FT/S)
CHESAPEAKE LIGHT NOT AVBL
64 E VA BEACH    1150   78 81   60/ 10/ 12 1024.8    2/ 8   2/ 8
DUCK             1200   76 78   40/  8/ 10 1024.7
2 E DUCK         1111      78                N/A     3/ 5
OREGON INLET     1200   77 77   30/  9/ 12 1024.6
13E OREGON INLT  1200      79                N/A     3/13   2/13
HATTERAS CG      1200   78 79   30/  8/ 13 1023.8
DIAMOND BUOY     1150   79 84   30/ 17/ 19 1023.3    3/ 8   2/ 8
CAPE LOOKOUT     1200   75     360/  9/ 11 1024.1
BEAUFORT LAB     1200   74 81   10/  7/  9 1024.0
30 SE NEW RVR IN 1208   78 84   40/ 12/ 17 1024.2
30 SE NEW RVR IN 1125      84                N/A     3/ 4
27 SE WRIGHTSVLE 1208   79 84   30/ 14/ 19 1024.1
5 SE WRIGHTSVLE  1208   77 83   30/ 14/ 17 1025.6
225 S CAPE HAT   1150   82 85   60/ 14/ 17 1021.1    4/ 6   2/11
41 SE CHARLESTON 1150   83 84   60/ 16/ 19 1022.2    4/ 5   2/ 8

$$




USA.gov is the U.S. government's official web portal to all federal, state and local government web resources and services.